sat.trackr.live / text

‹ back to catalog

SEMI-1N

NORAD 66297 · 2025-248E

PAYLOAD ACTIVE UNKNOWN

§ Identity

Operator
Country
TURK
Launch date
2025-11-02
Launch site
AFETR
Launch vehicle
Mass (kg)
RCS (m²)

External: N2YO · Heavens-Above · Gunter

§ Orbital elements

Epoch: 2026-05-24T17:58:28.792704Z

Period
94.58 min
Inclination
45.4066°
Eccentricity
0.0011585
Mean motion
15.22487919 rev/d
Perigee alt
490.4 km
Apogee alt
506.3 km
Semi-major
6,876.5 km
B*
1.5886e-4
RAAN
244.2179°
Arg perigee
271.1384°
Mean anomaly
88.8176°
Rev number
3,098

§ Raw data

SEMI-1N1 66297U 25248E   26144.74894436  .00003462  00000+0  15886-3 0  99982 66297  45.4066 244.2179 0011585 271.1384  88.8176 15.22487919 30988

JSON: /api/v1/satellites/66297 · /tle

For live sub-satellite position, see the globe view (requires WebGL).

§ Visibility from observer

Set your observer location to see the next 7 days of passes ≥ 10°. The values pass through the URL so the page stays shareable.

No JS? Fill the form by hand. The geolocation button needs JavaScript.